datetime,flow
1976-02-28,11.0
1976-02-29,12.0
1976-03-01,11.0
1976-03-02,10.0
1976-03-03,11.0
1976-03-04,10.0
1976-03-05,11.0
1976-03-06,11.0
1976-03-07,11.0
1976-03-08,10.0
1976-03-09,11.0
1976-03-10,12.0
1976-03-11,12.0
1976-03-12,12.0
1976-03-13,12.0
1976-03-14,12.0
1976-03-15,12.0
1976-03-16,12.0
1976-03-17,12.0
1976-03-18,11.0
1976-03-19,11.0
1976-03-20,11.0
1976-03-21,12.0
1976-03-22,11.0
1976-03-23,11.0
1976-03-24,11.0
1976-03-25,11.0
1976-03-26,11.0
1976-03-27,11.0
1976-03-28,11.0
1976-03-29,11.0
1976-03-30,11.0
1976-03-31,11.0
1976-04-01,11.0
1976-04-02,11.0
1976-04-03,11.0
1976-04-04,11.0
1976-04-05,11.0
1976-04-06,11.0
1976-04-07,11.0
1976-04-08,11.0
1976-04-09,11.0
1976-04-10,11.0
1976-04-11,10.0
1976-04-12,10.0
1976-04-13,10.0
1976-04-14,10.0
1976-04-15,12.0
1976-04-16,11.0
1976-04-17,11.0
1976-04-18,10.0
1976-04-19,10.0
1976-04-20,10.0
1976-04-21,10.0
1976-04-22,9.6
1976-04-23,10.0
1976-04-24,10.0
1976-04-25,10.0
1976-04-26,9.6
1976-04-27,10.0
1976-04-28,10.0
1976-04-29,10.0
1976-04-30,12.0
1976-05-01,10.0
1976-05-02,10.0
1976-05-03,10.0
1976-05-04,11.0
1976-05-05,14.0
1976-05-06,11.0
1976-05-07,11.0
1976-05-08,26.0
1976-05-09,40.0
1976-05-10,35.0
1976-05-11,17.0
1976-05-12,12.0
1976-05-13,11.0
1976-05-14,10.0
1976-05-15,10.0
1976-05-16,10.0
1976-05-17,10.0
1976-05-18,20.0
1976-05-19,46.0
1976-05-20,82.0
1976-05-21,88.0
1976-05-22,77.0
1976-05-23,106.0
1976-05-24,101.0
1976-05-25,84.0
1976-05-26,101.0
1976-05-27,117.0
1976-05-28,91.0
1976-05-29,57.0
1976-05-30,45.0
1976-05-31,42.0
1976-06-01,44.0
1976-06-02,26.0
1976-06-03,23.0
1976-06-04,24.0
1976-06-05,35.0
1976-06-06,195.0
1976-06-07,425.0
1976-06-08,494.0
1976-06-09,364.0
1976-06-10,168.0
1976-06-11,151.0
1976-06-12,115.0
1976-06-13,79.0
1976-06-14,55.0
1976-06-15,30.0
1976-06-16,20.0
1976-06-17,14.0
1976-06-18,13.0
1976-06-19,13.0
1976-06-20,12.0
1976-06-21,12.0
1976-06-22,12.0
1976-06-23,12.0
1976-06-24,11.0
1976-06-25,11.0
1976-06-26,11.0
1976-06-27,11.0
1976-06-28,11.0
1976-06-29,10.0
1976-06-30,10.0
1976-07-01,10.0
1976-07-02,10.0
1976-07-03,10.0
1976-07-04,570.0
1976-07-05,35.0
1976-07-06,16.0
1976-07-07,13.0
1976-07-08,13.0
1976-07-09,13.0
1976-07-10,13.0
1976-07-11,13.0
1976-07-12,13.0
1976-07-13,13.0
1976-07-14,30.0
1976-07-15,30.0
1976-07-16,110.0
1976-07-17,60.0
1976-07-18,18.0
1976-07-19,14.0
1976-07-20,13.0
1976-07-21,330.0
1976-07-22,81.0
1976-07-23,63.0
1976-07-24,449.0
1976-07-25,235.0
1976-07-26,179.0
1976-07-27,165.0
1976-07-28,120.0
1976-07-29,110.0
1976-07-30,42.0
1976-07-31,22.0
1976-08-01,17.0
1976-08-02,44.0
1976-08-03,1600.0
1976-08-04,1010.0
1976-08-05,116.0
1976-08-06,40.0
1976-08-07,20.0
1976-08-08,17.0
1976-08-09,16.0
1976-08-10,16.0
1976-08-11,15.0
1976-08-12,16.0
1976-08-13,14.0
1976-08-14,14.0
1976-08-15,14.0
1976-08-16,14.0
1976-08-17,14.0
1976-08-18,13.0
1976-08-19,14.0
1976-08-20,79.0
1976-08-21,117.0
1976-08-22,53.0
1976-08-23,40.0
1976-08-24,17.0
1976-08-25,67.0
1976-08-26,45.0
1976-08-27,16.0
1976-08-28,13.0
1976-08-29,13.0
1976-08-30,13.0
1976-08-31,12.0
1976-09-01,13.0
1976-09-02,13.0
1976-09-03,12.0
1976-09-04,12.0
1976-09-05,12.0
1976-09-06,524.0
1976-09-07,217.0
1976-09-08,97.0
1976-09-09,23.0
1976-09-10,13.0
1976-09-11,12.0
1976-09-12,12.0
1976-09-13,11.0
1976-09-14,11.0
1976-09-15,11.0
1976-09-16,187.0
1976-09-17,71.0
1976-09-18,88.0
1976-09-19,21.0
1976-09-20,310.0
1976-09-21,67.0
1976-09-22,21.0
1976-09-23,22.0
1976-09-24,17.0
1976-09-25,15.0
1976-09-26,14.0
1976-09-27,50.0
1976-09-28,14.0
1976-09-29,12.0
1976-09-30,10.0
1976-10-01,11.0
1976-10-02,11.0
1976-10-03,11.0
1976-10-04,13.0
1976-10-05,12.0
1976-10-06,12.0
1976-10-07,12.0
1976-10-08,12.0
1976-10-09,12.0
1976-10-10,12.0
1976-10-11,12.0
1976-10-12,12.0
1976-10-13,12.0
1976-10-14,13.0
1976-10-15,13.0
1976-10-16,13.0
1976-10-17,13.0
1976-10-18,13.0
1976-10-19,13.0
1976-10-20,13.0
1976-10-21,12.0
1976-10-22,12.0
1976-10-23,12.0
1976-10-24,12.0
1976-10-25,13.0
1976-10-26,13.0
1976-10-27,13.0
1976-10-28,13.0
1976-10-29,14.0
1976-10-30,14.0
1976-10-31,13.0
1976-11-01,13.0
1976-11-02,13.0
1976-11-03,13.0
1976-11-04,13.0
1976-11-05,13.0
1976-11-06,13.0
1976-11-07,13.0
1976-11-08,13.0
1976-11-09,13.0
1976-11-10,12.0
1976-11-11,12.0
1976-11-12,13.0
1976-11-13,13.0
1976-11-14,13.0
1976-11-15,13.0
1976-11-16,13.0
1976-11-17,13.0
1976-11-18,12.0
1976-11-19,12.0
1976-11-20,12.0
1976-11-21,12.0
1976-11-22,12.0
1976-11-23,13.0
1976-11-24,13.0
1976-11-25,12.0
1976-11-26,13.0
1976-11-27,13.0
1976-11-28,13.0
1976-11-29,13.0
1976-11-30,13.0
1976-12-01,13.0
1976-12-02,13.0
1976-12-03,12.0
1976-12-04,12.0
1976-12-05,12.0
1976-12-06,12.0
1976-12-07,12.0
1976-12-08,12.0
1976-12-09,12.0
1976-12-10,12.0
1976-12-11,12.0
1976-12-12,12.0
1976-12-13,11.0
1976-12-14,11.0
1976-12-15,11.0
1976-12-16,11.0
1976-12-17,11.0
1976-12-18,11.0
1976-12-19,11.0
1976-12-20,11.0
1976-12-21,11.0
1976-12-22,11.0
1976-12-23,11.0
1976-12-24,11.0
1976-12-25,11.0
1976-12-26,11.0
1976-12-27,10.0
1976-12-28,11.0
1976-12-29,11.0
1976-12-30,11.0
1976-12-31,10.0
1977-01-01,10.0
1977-01-02,10.0
1977-01-03,10.0
1977-01-04,10.0
1977-01-05,10.0
1977-01-06,10.0
1977-01-07,10.0
1977-01-08,10.0
1977-01-09,10.0
1977-01-10,10.0
1977-01-11,10.0
1977-01-12,10.0
1977-01-13,10.0
1977-01-14,10.0
1977-01-15,10.0
1977-01-16,9.6
1977-01-17,9.6
1977-01-18,9.6
1977-01-19,9.6
1977-01-20,9.2
1977-01-21,9.2
1977-01-22,9.6
1977-01-23,9.2
1977-01-24,9.2
1977-01-25,9.2
1977-01-26,9.2
1977-01-27,9.2
1977-01-28,9.2
1977-01-29,9.6
1977-01-30,9.6
1977-01-31,9.6
1977-02-01,9.2
1977-02-02,9.6
1977-02-03,10.0
1977-02-04,9.6
1977-02-05,9.2
1977-02-06,9.2
1977-02-07,8.7
1977-02-08,8.7
1977-02-09,8.7
1977-02-10,7.9
1977-02-11,7.9
1977-02-12,7.9
1977-02-13,8.3
1977-02-14,8.3
1977-02-15,8.7
1977-02-16,7.9
1977-02-17,7.9
1977-02-18,7.9
1977-02-19,7.9
1977-02-20,7.9
1977-02-21,7.9
1977-02-22,7.5
1977-02-23,7.5
1977-02-24,7.9
1977-02-25,8.3
1977-02-26,8.3
1977-02-27,7.9
1977-02-28,7.9
1977-03-01,7.9
1977-03-02,7.1
1977-03-03,7.1
1977-03-04,7.9
1977-03-05,7.5
1977-03-06,7.5
1977-03-07,7.5
1977-03-08,7.5
1977-03-09,7.1
1977-03-10,7.1
1977-03-11,7.5
1977-03-12,7.1
1977-03-13,7.5
1977-03-14,7.1
1977-03-15,7.5
1977-03-16,7.5
1977-03-17,7.5
1977-03-18,7.9
1977-03-19,7.5
1977-03-20,8.3
1977-03-21,8.3
1977-03-22,8.3
1977-03-23,8.3
1977-03-24,8.3
1977-03-25,7.9
1977-03-26,7.9
1977-03-27,8.3
1977-03-28,7.9
1977-03-29,7.9
1977-03-30,7.9
1977-03-31,7.5
1977-04-01,7.5
1977-04-02,7.5
1977-04-03,7.5
1977-04-04,7.1
1977-04-05,7.1
1977-04-06,7.1
1977-04-07,7.1
1977-04-08,7.1
1977-04-09,6.8
1977-04-10,7.1
1977-04-11,6.8
1977-04-12,6.8
1977-04-13,7.9
1977-04-14,8.3
1977-04-15,7.1
1977-04-16,7.5
1977-04-17,7.5
1977-04-18,7.1
1977-04-19,170.0
1977-04-20,14.0
1977-04-21,16.0
1977-04-22,40.0
1977-04-23,33.0
1977-04-24,12.0
1977-04-25,13.0
1977-04-26,12.0
1977-04-27,12.0
1977-04-28,23.0
1977-04-29,26.0
1977-04-30,34.0
1977-05-01,44.0
1977-05-02,28.0
1977-05-03,13.0
1977-05-04,16.0
1977-05-05,23.0
1977-05-06,26.0
1977-05-07,23.0
1977-05-08,15.0
1977-05-09,16.0
1977-05-10,15.0
1977-05-11,17.0
1977-05-12,34.0
1977-05-13,304.0
1977-05-14,341.0
1977-05-15,158.0
1977-05-16,132.0
1977-05-17,98.0
1977-05-18,84.0
1977-05-19,57.0
1977-05-20,53.0
1977-05-21,42.0
1977-05-22,18.0
1977-05-23,10.0
1977-05-24,11.0
1977-05-25,10.0
1977-05-26,10.0
1977-05-27,9.6
1977-05-28,8.7
1977-05-29,9.2
1977-05-30,9.2
1977-05-31,9.2
1977-06-01,8.7
1977-06-02,9.6
1977-06-03,9.6
1977-06-04,10.0
1977-06-05,10.0
1977-06-06,9.6
1977-06-07,8.7
1977-06-08,8.3
1977-06-09,7.5
1977-06-10,7.9
1977-06-11,7.9
1977-06-12,7.9
1977-06-13,7.9
1977-06-14,7.1
1977-06-15,7.1
1977-06-16,7.1
1977-06-17,7.1
1977-06-18,7.1
1977-06-19,6.8
1977-06-20,7.1
1977-06-21,7.1
1977-06-22,7.1
1977-06-23,7.1
1977-06-24,7.1
1977-06-25,7.1
1977-06-26,7.1
1977-06-27,7.1
1977-06-28,13.0
1977-06-29,7.5
1977-06-30,33.0
1977-07-01,11.0
1977-07-02,325.0
1977-07-03,14.0
1977-07-04,11.0
1977-07-05,9.6
1977-07-06,112.0
1977-07-07,69.0
1977-07-08,21.0
1977-07-09,1050.0
1977-07-10,178.0
1977-07-11,60.0
1977-07-12,23.0
1977-07-13,14.0
1977-07-14,12.0
1977-07-15,11.0
1977-07-16,11.0
1977-07-17,10.0
1977-07-18,9.2
1977-07-19,10.0
1977-07-20,46.0
1977-07-21,11.0
1977-07-22,11.0
1977-07-23,10.0
1977-07-24,10.0
1977-07-25,10.0
1977-07-26,10.0
1977-07-27,76.0
1977-07-28,257.0
1977-07-29,67.0
1977-07-30,17.0
1977-07-31,8.3
1977-08-01,8.3
1977-08-02,8.3
1977-08-03,7.1
1977-08-04,6.8
1977-08-05,7.5
1977-08-06,7.9
1977-08-07,7.9
1977-08-08,15.0
1977-08-09,12.0
1977-08-10,8.3
1977-08-11,553.0
1977-08-12,179.0
1977-08-13,86.0
1977-08-14,21.0
1977-08-15,12.0
1977-08-16,11.0
1977-08-17,20.0
1977-08-18,440.0
1977-08-19,221.0
1977-08-20,120.0
1977-08-21,308.0
1977-08-22,810.0
1977-08-23,233.0
1977-08-24,290.0
1977-08-25,177.0
1977-08-26,58.0
1977-08-27,28.0
1977-08-28,23.0
1977-08-29,1550.0
1977-08-30,85.0
1977-08-31,43.0
1977-09-01,19.0
1977-09-02,46.0
1977-09-03,115.0
1977-09-04,42.0
1977-09-05,26.0
1977-09-06,18.0
1977-09-07,16.0
1977-09-08,14.0
1977-09-09,14.0
1977-09-10,13.0
1977-09-11,13.0
1977-09-12,13.0
1977-09-13,13.0
1977-09-14,13.0
1977-09-15,12.0
1977-09-16,12.0
1977-09-17,12.0
1977-09-18,12.0
1977-09-19,12.0
1977-09-20,11.0
1977-09-21,11.0
1977-09-22,11.0
1977-09-23,11.0
1977-09-24,11.0
1977-09-25,11.0
1977-09-26,11.0
1977-09-27,12.0
1977-09-28,12.0
1977-09-29,12.0
1977-09-30,12.0
1977-10-01,12.0
1977-10-02,13.0
1977-10-03,13.0
1977-10-04,14.0
1977-10-05,13.0
1977-10-06,15.0
1977-10-07,14.0
1977-10-08,13.0
1977-10-09,13.0
1977-10-10,12.0
1977-10-11,12.0
1977-10-12,12.0
1977-10-13,12.0
1977-10-14,12.0
1977-10-15,11.0
1977-10-16,11.0
1977-10-17,11.0
1977-10-18,11.0
1977-10-19,11.0
1977-10-20,10.0
1977-10-21,10.0
1977-10-22,10.0
1977-10-23,10.0
1977-10-24,9.6
1977-10-25,9.2
1977-10-26,9.2
1977-10-27,8.7
1977-10-28,8.7
1977-10-29,8.7
1977-10-30,9.2
1977-10-31,9.2
1977-11-01,9.6
1977-11-02,9.6
1977-11-03,10.0
1977-11-04,9.6
1977-11-05,9.6
1977-11-06,10.0
1977-11-07,11.0
1977-11-08,10.0
1977-11-09,10.0
1977-11-10,19.0
1977-11-11,11.0
1977-11-12,9.6
1977-11-13,9.6
1977-11-14,10.0
1977-11-15,10.0
1977-11-16,10.0
1977-11-17,10.0
1977-11-18,10.0
1977-11-19,9.6
1977-11-20,9.6
1977-11-21,9.6
1977-11-22,9.6
1977-11-23,9.6
1977-11-24,9.2
1977-11-25,9.2
1977-11-26,8.7
1977-11-27,8.7
1977-11-28,8.3
1977-11-29,8.3
1977-11-30,8.3
1977-12-01,8.3
1977-12-02,7.9
1977-12-03,7.5
1977-12-04,7.5
1977-12-05,7.5
1977-12-06,7.5
1977-12-07,6.8
1977-12-08,6.8
1977-12-09,7.1
1977-12-10,7.1
1977-12-11,6.8
1977-12-12,7.1
1977-12-13,7.5
1977-12-14,7.5
1977-12-15,7.5
1977-12-16,7.5
1977-12-17,7.5
1977-12-18,7.5
1977-12-19,7.5
1977-12-20,7.9
1977-12-21,8.3
1977-12-22,8.3
1977-12-23,8.3
1977-12-24,8.3
1977-12-25,8.3
1977-12-26,8.7
1977-12-27,8.7
1977-12-28,8.7
1977-12-29,8.7
1977-12-30,8.3
1977-12-31,7.9
1978-01-01,7.9
1978-01-02,7.9
1978-01-03,7.1
1978-01-04,7.1
1978-01-05,6.8
1978-01-06,7.1
1978-01-07,7.1
1978-01-08,7.1
1978-01-09,7.5
1978-01-10,7.5
1978-01-11,7.5
1978-01-12,7.1
1978-01-13,7.1
1978-01-14,7.5
1978-01-15,7.9
1978-01-16,7.9
1978-01-17,7.9
1978-01-18,8.3
1978-01-19,8.3
1978-01-20,8.3
1978-01-21,8.7
1978-01-22,8.3
1978-01-23,7.9
1978-01-24,8.3
1978-01-25,8.3
1978-01-26,8.3
1978-01-27,7.9
1978-01-28,7.9
1978-01-29,7.9
1978-01-30,7.5
1978-01-31,7.9
1978-02-01,7.9
1978-02-02,7.1
1978-02-03,7.1
1978-02-04,7.1
1978-02-05,7.1
1978-02-06,7.1
1978-02-07,6.5
1978-02-08,6.8
1978-02-09,6.5
1978-02-10,6.5
1978-02-11,5.9
1978-02-12,6.2
1978-02-13,5.9
1978-02-14,6.2
1978-02-15,6.5
1978-02-16,6.5
1978-02-17,6.8
1978-02-18,6.5
1978-02-19,6.5
1978-02-20,6.5
1978-02-21,6.2
1978-02-22,5.9
1978-02-23,5.9
1978-02-24,5.9
1978-02-25,5.6
1978-02-26,5.6
1978-02-27,5.4
1978-02-28,5.6
1978-03-01,5.6
1978-03-02,5.6
1978-03-03,5.6
1978-03-04,5.6
1978-03-05,5.6
1978-03-06,5.9
1978-03-07,6.8
1978-03-08,5.6
1978-03-09,5.6
1978-03-10,5.4
1978-03-11,5.4
1978-03-12,5.4
1978-03-13,5.4
1978-03-14,5.4
1978-03-15,5.6
1978-03-16,6.2
1978-03-17,5.9
1978-03-18,5.6
1978-03-19,5.9
1978-03-20,5.9
1978-03-21,5.6
1978-03-22,5.6
1978-03-23,5.9
1978-03-24,5.9
1978-03-25,5.9
1978-03-26,5.6
1978-03-27,5.6
1978-03-28,5.9
1978-03-29,5.9
1978-03-30,5.4
1978-03-31,5.1
1978-04-01,5.1
1978-04-02,5.1
1978-04-03,5.1
1978-04-04,5.1
1978-04-05,5.1
1978-04-06,5.1
1978-04-07,5.1
1978-04-08,5.1
1978-04-09,5.4
1978-04-10,5.6
1978-04-11,5.4
1978-04-12,5.4
1978-04-13,5.4
1978-04-14,5.4
1978-04-15,5.1
1978-04-16,4.8
1978-04-17,4.8
1978-04-18,4.8
1978-04-19,4.8
1978-04-20,4.8
1978-04-21,4.8
1978-04-22,4.8
1978-04-23,4.8
1978-04-24,4.8
1978-04-25,4.8
1978-04-26,4.8
1978-04-27,4.5
1978-04-28,4.5
1978-04-29,4.6
1978-04-30,4.8
1978-05-01,5.0
1978-05-02,10.0
1978-05-03,13.0
1978-05-04,14.0
1978-05-05,14.0
1978-05-06,14.0
1978-05-07,14.0
1978-05-08,13.0
1978-05-09,11.0
1978-05-10,8.0
1978-05-11,5.0
1978-05-12,17.0
1978-05-13,20.0
1978-05-14,25.0
1978-05-15,35.0
1978-05-16,70.0
1978-05-17,120.0
1978-05-18,210.0
1978-05-19,198.0
1978-05-20,172.0
1978-05-21,194.0
1978-05-22,206.0
1978-05-23,194.0
1978-05-24,190.0
1978-05-25,194.0
1978-05-26,198.0
1978-05-27,179.0
1978-05-28,165.0
1978-05-29,145.0
1978-05-30,117.0
1978-05-31,93.0
1978-06-01,86.0
1978-06-02,104.0
1978-06-03,126.0
1978-06-04,132.0
1978-06-05,148.0
1978-06-06,189.0
1978-06-07,203.0
1978-06-08,151.0
1978-06-09,136.0
1978-06-10,109.0
1978-06-11,82.0
1978-06-12,64.0
1978-06-13,59.0
1978-06-14,66.0
1978-06-15,38.0
1978-06-16,27.0
1978-06-17,16.0
1978-06-18,16.0
1978-06-19,15.0
1978-06-20,14.0
1978-06-21,14.0
1978-06-22,14.0
1978-06-23,14.0
1978-06-24,14.0
1978-06-25,14.0
1978-06-26,14.0
1978-06-27,49.0
1978-06-28,130.0
1978-06-29,1240.0
1978-06-30,304.0
1978-07-01,161.0
1978-07-02,64.0
1978-07-03,19.0
1978-07-04,9.6
1978-07-05,8.7
1978-07-06,8.7
1978-07-07,8.3
1978-07-08,8.3
1978-07-09,7.9
1978-07-10,7.9
1978-07-11,7.9
1978-07-12,7.9
1978-07-13,7.9
1978-07-14,7.9
1978-07-15,7.9
1978-07-16,7.9
1978-07-17,7.9
1978-07-18,8.3
1978-07-19,8.3
1978-07-20,8.3
1978-07-21,8.7
1978-07-22,9.2
1978-07-23,118.0
1978-07-24,132.0
1978-07-25,23.0
1978-07-26,9.6
1978-07-27,8.7
1978-07-28,8.7
1978-07-29,8.7
1978-07-30,9.6
1978-07-31,35.0
1978-08-01,7.9
1978-08-02,9.2
1978-08-03,11.0
1978-08-04,104.0
1978-08-05,83.0
1978-08-06,64.0
1978-08-07,16.0
1978-08-08,10.0
1978-08-09,9.2
1978-08-10,8.7
1978-08-11,8.7
1978-08-12,8.7
1978-08-13,9.2
1978-08-14,9.2
1978-08-15,9.6
1978-08-16,9.6
1978-08-17,9.6
1978-08-18,9.6
1978-08-19,10.0
1978-08-20,10.0
1978-08-21,7.9
1978-08-22,8.3
1978-08-23,8.3
1978-08-24,8.3
1978-08-25,10.0
1978-08-26,6.5
1978-08-27,6.2
1978-08-28,5.9
1978-08-29,6.5
1978-08-30,6.8
1978-08-31,8.4
1978-09-01,5.6
1978-09-02,5.6
1978-09-03,6.2
1978-09-04,6.2
1978-09-05,5.6
1978-09-06,5.6
1978-09-07,5.6
1978-09-08,5.6
1978-09-09,5.6
1978-09-10,5.4
1978-09-11,5.4
1978-09-12,5.6
1978-09-13,5.9
1978-09-14,6.2
1978-09-15,6.2
1978-09-16,6.2
1978-09-17,6.2
1978-09-18,6.2
1978-09-19,6.5
1978-09-20,6.5
1978-09-21,6.5
1978-09-22,6.5
1978-09-23,6.8
1978-09-24,7.5
1978-09-25,6.8
1978-09-26,6.5
1978-09-27,6.2
1978-09-28,6.2
1978-09-29,6.2
1978-09-30,6.5
1978-10-01,6.5
1978-10-02,6.8
1978-10-03,6.8
1978-10-04,6.5
1978-10-05,6.8
1978-10-06,6.8
1978-10-07,6.8
1978-10-08,6.8
1978-10-09,6.8
1978-10-10,6.2
1978-10-11,6.2
1978-10-12,6.2
1978-10-13,5.9
1978-10-14,6.2
1978-10-15,6.5
1978-10-16,6.2
1978-10-17,6.2
1978-10-18,6.2
1978-10-19,6.2
1978-10-20,5.9
1978-10-21,6.5
1978-10-22,7.1
1978-10-23,7.9
1978-10-24,7.1
1978-10-25,6.5
1978-10-26,6.5
1978-10-27,6.2
1978-10-28,6.2
1978-10-29,6.2
1978-10-30,6.2
1978-10-31,6.5
1978-11-01,6.5
1978-11-02,6.2
1978-11-03,60.0
1978-11-04,607.0
1978-11-05,181.0
1978-11-06,80.0
1978-11-07,46.0
1978-11-08,29.0
1978-11-09,16.0
1978-11-10,8.3
1978-11-11,8.7
1978-11-12,8.3
1978-11-13,7.9
1978-11-14,8.7
1978-11-15,21.0
1978-11-16,22.0
1978-11-17,13.0
1978-11-18,7.9
1978-11-19,6.5
1978-11-20,6.8
1978-11-21,7.1
1978-11-22,6.2
1978-11-23,6.8
1978-11-24,7.1
1978-11-25,79.0
1978-11-26,294.0
1978-11-27,176.0
1978-11-28,115.0
1978-11-29,75.0
1978-11-30,64.0
1978-12-01,46.0
1978-12-02,34.0
1978-12-03,17.0
1978-12-04,14.0
1978-12-05,8.7
1978-12-06,8.3
1978-12-07,7.1
1978-12-08,7.1
1978-12-09,7.0
1978-12-10,7.0
1978-12-11,7.0
1978-12-12,6.0
1978-12-13,6.0
1978-12-14,6.0
1978-12-15,6.0
1978-12-16,5.0
1978-12-17,5.0
1978-12-18,5.0
1978-12-19,5.0
1978-12-20,5.0
1978-12-21,6.0
1978-12-22,6.0
1978-12-23,6.0
1978-12-24,6.0
1978-12-25,6.0
1978-12-26,5.0
1978-12-27,5.0
1978-12-28,5.0
1978-12-29,5.0
1978-12-30,5.0
1978-12-31,5.0
1979-01-01,5.0
1979-01-02,6.0
1979-01-03,6.0
1979-01-04,6.0
1979-01-05,7.0
1979-01-06,7.0
1979-01-07,7.0
1979-01-08,8.0
1979-01-09,8.0
1979-01-10,8.0
1979-01-11,8.0
1979-01-12,9.0
1979-01-13,10.0
1979-01-14,12.0
1979-01-15,14.0
1979-01-16,10.0
1979-01-17,7.0
1979-01-18,6.5
1979-01-19,5.9
1979-01-20,24.0
1979-01-21,7.5
1979-01-22,6.5
1979-01-23,5.9
1979-01-24,6.2
1979-01-25,6.2
1979-01-26,6.8
1979-01-27,6.5
1979-01-28,6.8
1979-01-29,6.8
1979-01-30,6.5
1979-01-31,6.2
1979-02-01,6.2
1979-02-02,5.9
1979-02-03,5.9
1979-02-04,5.9
1979-02-05,6.2
1979-02-06,6.2
1979-02-07,5.6
1979-02-08,5.6
1979-02-09,5.6
1979-02-10,5.4
1979-02-11,5.4
1979-02-12,5.4
1979-02-13,5.1
1979-02-14,5.4
1979-02-15,5.4
1979-02-16,5.9
1979-02-17,7.4
1979-02-18,12.0
1979-02-19,16.0
1979-02-20,8.7
1979-02-21,7.9
1979-02-22,13.0
1979-02-23,12.0
1979-02-24,12.0
1979-02-25,6.8
1979-02-26,5.6
1979-02-27,6.5
1979-02-28,6.8
1979-03-01,6.8
1979-03-02,6.2
1979-03-03,6.2
1979-03-04,6.2
1979-03-05,6.2
1979-03-06,6.2
1979-03-07,6.2
1979-03-08,6.2
1979-03-09,6.5
1979-03-10,6.5
1979-03-11,6.8
1979-03-12,6.8
1979-03-13,9.2
1979-03-14,11.0
1979-03-15,18.0
1979-03-16,31.0
1979-03-17,42.0
1979-03-18,46.0
1979-03-19,50.0
1979-03-20,46.0
1979-03-21,51.0
1979-03-22,44.0
1979-03-23,35.0
1979-03-24,27.0
1979-03-25,18.0
1979-03-26,13.0
1979-03-27,12.0
1979-03-28,17.0
1979-03-29,27.0
1979-03-30,34.0
1979-03-31,33.0
1979-04-01,29.0
1979-04-02,27.0
1979-04-03,26.0
1979-04-04,21.0
1979-04-05,14.0
1979-04-06,11.0
1979-04-07,11.0
1979-04-08,10.0
1979-04-09,14.0
1979-04-10,114.0
1979-04-11,168.0
1979-04-12,139.0
1979-04-13,112.0
1979-04-14,84.0
1979-04-15,60.0
1979-04-16,83.0
1979-04-17,172.0
1979-04-18,258.0
1979-04-19,464.0
1979-04-20,608.0
1979-04-21,556.0
1979-04-22,480.0
1979-04-23,487.0
1979-04-24,542.0
1979-04-25,608.0
1979-04-26,669.0
1979-04-27,669.0
1979-04-28,592.0
1979-04-29,494.0
1979-04-30,572.0
1979-05-01,429.0
1979-05-02,364.0
1979-05-03,375.0
1979-05-04,387.0
1979-05-05,321.0
1979-05-06,281.0
1979-05-07,296.0
1979-05-08,451.0
1979-05-09,549.0
1979-05-10,578.0
1979-05-11,415.0
1979-05-12,326.0
1979-05-13,262.0
1979-05-14,222.0
1979-05-15,210.0
1979-05-16,240.0
1979-05-17,248.0
1979-05-18,311.0
1979-05-19,359.0
1979-05-20,1200.0
1979-05-21,1850.0
1979-05-22,1300.0
1979-05-23,1310.0
1979-05-24,1220.0
1979-05-25,1460.0
1979-05-26,1370.0
1979-05-27,1520.0
1979-05-28,1580.0
1979-05-29,1440.0
1979-05-30,1410.0
1979-05-31,1390.0
1979-06-01,1370.0
1979-06-02,1580.0
1979-06-03,1340.0
1979-06-04,1190.0
1979-06-05,1160.0
1979-06-06,1230.0
1979-06-07,1170.0
1979-06-08,1190.0
1979-06-09,1890.0
1979-06-10,2020.0
1979-06-11,1600.0
1979-06-12,1310.0
1979-06-13,1110.0
1979-06-14,1040.0
1979-06-15,1020.0
1979-06-16,963.0
1979-06-17,936.0
1979-06-18,837.0
1979-06-19,776.0
1979-06-20,701.0
1979-06-21,585.0
1979-06-22,448.0
1979-06-23,411.0
1979-06-24,364.0
1979-06-25,385.0
1979-06-26,445.0
1979-06-27,370.0
1979-06-28,316.0
1979-06-29,296.0
1979-06-30,291.0
1979-07-01,291.0
1979-07-02,240.0
1979-07-03,222.0
1979-07-04,202.0
1979-07-05,190.0
1979-07-06,289.0
1979-07-07,605.0
1979-07-08,190.0
1979-07-09,129.0
1979-07-10,93.0
1979-07-11,60.0
1979-07-12,42.0
1979-07-13,34.0
1979-07-14,29.0
1979-07-15,29.0
1979-07-16,28.0
1979-07-17,29.0
1979-07-18,48.0
1979-07-19,67.0
1979-07-20,59.0
1979-07-21,44.0
1979-07-22,33.0
1979-07-23,23.0
1979-07-24,21.0
1979-07-25,21.0
1979-07-26,22.0
1979-07-27,22.0
1979-07-28,23.0
1979-07-29,22.0
1979-07-30,22.0
1979-07-31,33.0
1979-08-01,48.0
1979-08-02,56.0
1979-08-03,40.0
1979-08-04,51.0
1979-08-05,21.0
1979-08-06,21.0
1979-08-07,21.0
1979-08-08,21.0
1979-08-09,21.0
1979-08-10,22.0
1979-08-11,90.0
1979-08-12,104.0
1979-08-13,27.0
1979-08-14,21.0
1979-08-15,726.0
1979-08-16,1320.0
1979-08-17,1440.0
1979-08-18,274.0
1979-08-19,168.0
1979-08-20,126.0
1979-08-21,95.0
1979-08-22,62.0
1979-08-23,58.0
1979-08-24,388.0
1979-08-25,59.0
1979-08-26,27.0
1979-08-27,26.0
1979-08-28,23.0
1979-08-29,23.0
1979-08-30,23.0
1979-08-31,23.0
1979-09-01,22.0
1979-09-02,21.0
1979-09-03,21.0
1979-09-04,21.0
1979-09-05,21.0
1979-09-06,22.0
1979-09-07,22.0
1979-09-08,21.0
1979-09-09,21.0
1979-09-10,21.0
1979-09-11,20.0
1979-09-12,21.0
1979-09-13,21.0
1979-09-14,46.0
1979-09-15,24.0
1979-09-16,21.0
1979-09-17,20.0
1979-09-18,21.0
1979-09-19,21.0
1979-09-20,21.0
1979-09-21,21.0
1979-09-22,21.0
1979-09-23,22.0
1979-09-24,20.0
1979-09-25,20.0
1979-09-26,20.0
1979-09-27,20.0
1979-09-28,20.0
1979-09-29,20.0
1979-09-30,19.0
1979-10-01,19.0
1979-10-02,20.0
1979-10-03,20.0
1979-10-04,21.0
1979-10-05,20.0
1979-10-06,20.0
1979-10-07,20.0
1979-10-08,20.0
1979-10-09,20.0
1979-10-10,20.0
1979-10-11,20.0
1979-10-12,20.0
1979-10-13,20.0
1979-10-14,20.0
1979-10-15,20.0
1979-10-16,20.0
1979-10-17,20.0
1979-10-18,20.0
1979-10-19,20.0
1979-10-20,19.0
1979-10-21,19.0
1979-10-22,19.0
1979-10-23,19.0
1979-10-24,19.0
1979-10-25,19.0
1979-10-26,18.0
1979-10-27,18.0
1979-10-28,18.0
1979-10-29,19.0
1979-10-30,21.0
1979-10-31,19.0
1979-11-01,19.0
1979-11-02,19.0
1979-11-03,19.0
1979-11-04,18.0
1979-11-05,18.0
1979-11-06,18.0
1979-11-07,18.0
1979-11-08,18.0
1979-11-09,18.0
1979-11-10,18.0
1979-11-11,17.0
1979-11-12,17.0
1979-11-13,16.0
1979-11-14,16.0
1979-11-15,18.0
1979-11-16,18.0
1979-11-17,17.0
1979-11-18,16.0
1979-11-19,17.0
1979-11-20,17.0
1979-11-21,17.0
1979-11-22,17.0
1979-11-23,17.0
1979-11-24,17.0
1979-11-25,17.0
1979-11-26,17.0
1979-11-27,17.0
1979-11-28,16.0
1979-11-29,16.0
1979-11-30,16.0
1979-12-01,16.0
1979-12-02,16.0
1979-12-03,16.0
1979-12-04,16.0
1979-12-05,16.0
1979-12-06,16.0
1979-12-07,16.0
1979-12-08,16.0
1979-12-09,16.0
1979-12-10,15.0
1979-12-11,16.0
1979-12-12,16.0
1979-12-13,17.0
1979-12-14,17.0
1979-12-15,17.0
1979-12-16,17.0
1979-12-17,16.0
1979-12-18,16.0
1979-12-19,16.0
1979-12-20,16.0
1979-12-21,16.0
1979-12-22,15.0
1979-12-23,15.0
1979-12-24,15.0
1979-12-25,15.0
1979-12-26,14.0
1979-12-27,16.0
1979-12-28,16.0
1979-12-29,15.0
1979-12-30,14.0
1979-12-31,15.0
1980-01-01,14.0
1980-01-02,14.0
1980-01-03,14.0
1980-01-04,14.0
1980-01-05,13.0
1980-01-06,13.0
1980-01-07,13.0
1980-01-08,13.0
1980-01-09,13.0
1980-01-10,13.0
1980-01-11,13.0
1980-01-12,13.0
1980-01-13,13.0
1980-01-14,13.0
1980-01-15,14.0
1980-01-16,14.0
1980-01-17,14.0
1980-01-18,14.0
1980-01-19,14.0
1980-01-20,14.0
1980-01-21,14.0
1980-01-22,14.0
1980-01-23,14.0
1980-01-24,15.0
1980-01-25,14.0
1980-01-26,15.0
1980-01-27,15.0
1980-01-28,15.0
1980-01-29,15.0
1980-01-30,14.0
1980-01-31,15.0
1980-02-01,14.0
1980-02-02,14.0
1980-02-03,14.0
1980-02-04,14.0
1980-02-05,14.0
1980-02-06,13.0
1980-02-07,15.0
1980-02-08,15.0
1980-02-09,14.0
1980-02-10,14.0
1980-02-11,14.0
1980-02-12,13.0
1980-02-13,13.0
1980-02-14,13.0
1980-02-15,13.0
1980-02-16,14.0
1980-02-17,13.0
1980-02-18,13.0
1980-02-19,13.0
1980-02-20,13.0
1980-02-21,13.0
1980-02-22,13.0
1980-02-23,13.0
1980-02-24,13.0
1980-02-25,13.0
1980-02-26,13.0
1980-02-27,13.0
1980-02-28,13.0
1980-02-29,13.0
1980-03-01,13.0
1980-03-02,13.0
1980-03-03,12.0
1980-03-04,12.0
1980-03-05,12.0
1980-03-06,12.0
1980-03-07,12.0
1980-03-08,12.0
1980-03-09,12.0
1980-03-10,12.0
1980-03-11,12.0
1980-03-12,11.0
1980-03-13,12.0
1980-03-14,12.0
1980-03-15,12.0
1980-03-16,12.0
1980-03-17,12.0
1980-03-18,11.0
1980-03-19,11.0
1980-03-20,11.0
1980-03-21,11.0
1980-03-22,11.0
1980-03-23,13.0
1980-03-24,12.0
1980-03-25,11.0
1980-03-26,11.0
1980-03-27,11.0
1980-03-28,12.0
1980-03-29,14.0
1980-03-30,12.0
1980-03-31,12.0
1980-04-01,12.0
1980-04-02,12.0
1980-04-03,12.0
1980-04-04,11.0
1980-04-05,12.0
1980-04-06,12.0
1980-04-07,11.0
1980-04-08,11.0
1980-04-09,12.0
1980-04-10,12.0
1980-04-11,13.0
1980-04-12,14.0
1980-04-13,31.0
1980-04-14,25.0
1980-04-15,24.0
1980-04-16,17.0
1980-04-17,14.0
1980-04-18,14.0
1980-04-19,27.0
1980-04-20,53.0
1980-04-21,79.0
1980-04-22,115.0
1980-04-23,136.0
1980-04-24,154.0